This is the latest recevied weather packets stored in our database for station/object SQ5JP-4. If no packets are shown the sender has not sent any weather packets the latest 10 day(s).
| Time | Temp. | Humidity | Pressure | Rain* | Wind** | Luminosity | Snow |
|---|---|---|---|---|---|---|---|
| 1788419042 | 17.22° C | 100% | 999.2 hPa | - | - | - | - |
| 1788418142 | 16.67° C | 100% | 999.2 hPa | - | - | - | - |
| 1788417242 | 15.56° C | 100% | 998.8 hPa | - | - | - | - |
| 1788416342 | 14.44° C | 100% | 998.8 hPa | - | - | - | - |
| 1788415442 | 13.33° C | 100% | 998.8 hPa | - | - | - | - |
| 1788414542 | 13.33° C | 100% | 998.8 hPa | - | - | - | - |
| 1788413642 | 13.33° C | 100% | 999 hPa | - | - | - | - |
| 1788412742 | 13.89° C | 100% | 999.1 hPa | - | - | - | - |
| 1788411842 | 12.78° C | 100% | 999.1 hPa | - | - | - | - |
| 1788410941 | 12.22° C | 100% | 999.1 hPa | - | - | - | - |
| 1788410041 | 12.22° C | 100% | 998.9 hPa | - | - | - | - |
| 1788409142 | 11.67° C | 100% | 998.9 hPa | - | - | - | - |
| 1788408241 | 11.67° C | 100% | 998.9 hPa | - | - | - | - |
| 1788407341 | 11.67° C | 100% | 999.3 hPa | - | - | - | - |
| 1788406441 | 11.67° C | 100% | 999.1 hPa | - | - | - | - |
| 1788405541 | 11.11° C | 100% | 999 hPa | - | - | - | - |
| 1788404641 | 11.11° C | 100% | 999.1 hPa | - | - | - | - |
| 1788403741 | 11.11° C | 100% | 999.3 hPa | - | - | - | - |
| 1788402840 | 11.11° C | 100% | 999.3 hPa | - | - | - | - |
| 1788401940 | 10.56° C | 100% | 999.4 hPa | - | - | - | - |
| 1788379438 | 11.67° C | 100% | 1000.4 hPa | - | - | - | - |
| 1788377637 | 12.78° C | 100% | 1000.6 hPa | - | - | - | - |
| 1788374038 | 13.33° C | 100% | 1000.5 hPa | - | - | - | - |
| 1788373138 | 13.89° C | 100% | 1000.7 hPa | - | - | - | - |
| 1788372238 | 14.44° C | 100% | 1000.3 hPa | - | - | - | - |
* Rain since midnight (hover to see other rain measurements)
** Current wind speed in m/s (hover to see current wind gust speed)